2021-09-06 00:02:57 r, 20.23m,0000000001Hz,0000672499c,0000001.459s, 024.1C,00002191
2021-09-06 00:12:57 r, 20.25m,0000000001Hz,0000681566c,0000001.479s, 024.1C,00002191
2021-09-06 00:22:58 r, 20.12m,0000000001Hz,0000610502c,0000001.325s, 024.1C,00002191
2021-09-06 00:32:57 r, 20.28m,0000000001Hz,0000699006c,0000001.517s, 024.1C,00002191
2021-09-06 00:42:57 r, 20.17m,0000000001Hz,0000638406c,0000001.385s, 024.1C,00002191
2021-09-06 00:52:59 r, 19.84m,0000000001Hz,0000471399c,0000001.023s, 024.1C,00002191
2021-09-06 01:02:57 r, 19.76m,0000000001Hz,0000438664c,0000000.952s, 024.1C,00002191
2021-09-06 01:12:57 r, 19.71m,0000000002Hz,0000416558c,0000000.904s, 024.4C,00002191
2021-09-06 01:22:58 r, 19.79m,0000000001Hz,0000449512c,0000000.976s, 024.4C,00002191
2021-09-06 01:32:57 r, 19.97m,0000000000Hz,0000529683c,0000001.149s, 024.4C,00002191
2021-09-06 01:42:57 r, 20.48m,0000000001Hz,0000840973c,0000001.825s, 024.4C,00002191
2021-09-06 01:52:58 r, 20.66m,0000000001Hz,0000993474c,0000002.156s, 024.4C,00002191
2021-09-06 02:02:57 r, 20.21m,0000000000Hz,0000665408c,0000001.444s, 024.1C,00002191
2021-09-06 02:12:57 r, 20.81m,0000000001Hz,0001145822c,0000002.487s, 024.1C,00002191
2021-09-06 02:22:58 r, 20.92m,0000000000Hz,0001259741c,0000002.734s, 024.1C,00002191
2021-09-06 02:32:57 r, 20.83m,0000000000Hz,0001166523c,0000002.532s, 024.1C,00002191
2021-09-06 02:42:57 r, 20.84m,0000000000Hz,0001173886c,0000002.547s, 023.8C,00002191
2021-09-06 02:52:59 r, 20.73m,0000000000Hz,0001058501c,0000002.297s, 023.8C,00002191
2021-09-06 03:02:57 r, 20.77m,0000000001Hz,0001098923c,0000002.385s, 023.8C,00002191
2021-09-06 03:12:57 r, 20.50m,0000000000Hz,0000860245c,0000001.867s, 023.5C,00002191
2021-09-06 03:22:59 r, 19.75m,0000000001Hz,0000434956c,0000000.944s, 023.8C,00002191
2021-09-06 03:32:57 r, 19.83m,0000000001Hz,0000468544c,0000001.017s, 023.8C,00002191
2021-09-06 03:42:57 r, 19.60m,0000000001Hz,0000375342c,0000000.815s, 024.1C,00002191
2021-09-06 03:52:58 r, 19.50m,0000000002Hz,0000345339c,0000000.749s, 024.4C,00002191
2021-09-06 04:02:57 r, 19.54m,0000000001Hz,0000357186c,0000000.775s, 024.4C,00002191
2021-09-06 04:12:57 r, 19.60m,0000000001Hz,0000376225c,0000000.816s, 024.8C,00002191
2021-09-06 04:22:58 r, 19.76m,0000000001Hz,0000437864c,0000000.950s, 024.8C,00002191
2021-09-06 04:32:57 r, 20.00m,0000000001Hz,0000546088c,0000001.185s, 025.1C,00002191
2021-09-06 04:42:57 r, 19.95m,0000000001Hz,0000522061c,0000001.133s, 025.1C,00002191
2021-09-06 04:52:58 r, 19.83m,0000000001Hz,0000463624c,0000001.006s, 025.1C,00002191
2021-09-06 05:02:58 r, 19.78m,0000000001Hz,0000445594c,0000000.967s, 025.4C,00002191
2021-09-06 05:12:57 r, 19.65m,0000000001Hz,0000396497c,0000000.860s, 025.4C,00002191
2021-09-06 05:22:59 r, 19.49m,0000000002Hz,0000340730c,0000000.739s, 025.4C,00002191
2021-09-06 05:32:58 r, 19.91m,0000000000Hz,0000502298c,0000001.090s, 025.4C,00002191
2021-09-06 05:42:57 r, 18.98m,0000000002Hz,0000213157c,0000000.463s, 025.4C,00002191
2021-09-06 05:52:58 r, 17.77m,0000000006Hz,0000070515c,0000000.153s, 025.1C,00002191
2021-09-06 06:02:58 r, 16.31m,0000000025Hz,0000018405c,0000000.040s, 025.1C,00002191
2021-09-06 06:12:57 r, 14.64m,0000000115Hz,0000003950c,0000000.009s, 025.1C,00002191
2021-09-06 06:22:58 r, 12.82m,0000000630Hz,0000000000c,0000000.000s, 025.1C,00002191
2021-09-06 06:32:58 r, 10.87m,0000003785Hz,0000000000c,0000000.000s, 025.4C,00002191
2021-09-06 06:42:57 r, 09.09m,0000019536Hz,0000000000c,0000000.000s, 025.4C,00002191
2021-09-06 06:52:58 r, 07.69m,0000070979Hz,0000000000c,0000000.000s, 025.1C,00002191
2021-09-06 07:02:59 r, 06.93m,0000143755Hz,0000000000c,0000000.000s, 025.4C,00002191
2021-09-06 07:12:57 r, 06.63m,0000187907Hz,0000000000c,0000000.000s, 025.4C,00002191
2021-09-06 07:22:59 r, 00.00m,0000574219Hz,0000000000c,0000000.000s, 025.4C,00002191
2021-09-06 07:32:58 r, 00.00m,0000596877Hz,0000000000c,0000000.000s, 025.7C,00002191
2021-09-06 07:42:57 r, 00.00m,0000596829Hz,0000000000c,0000000.000s, 026.4C,00002191
2021-09-06 07:53:00 r, 00.00m,0000596787Hz,0000000000c,0000000.000s, 027.0C,00002191
2021-09-06 08:02:58 r, 00.00m,0000596730Hz,0000000000c,0000000.000s, 027.3C,00002191
2021-09-06 08:12:57 r, 00.00m,0000596636Hz,0000000000c,0000000.000s, 028.0C,00002191
2021-09-06 08:22:58 r, 00.00m,0000596470Hz,0000000000c,0000000.000s, 029.3C,00002191
2021-09-06 08:32:58 r, 00.00m,0000596437Hz,0000000000c,0000000.000s, 030.2C,00002191
2021-09-06 08:42:57 r, 00.00m,0000596174Hz,0000000000c,0000000.000s, 031.5C,00002191
2021-09-06 08:52:58 r, 00.00m,0000596182Hz,0000000000c,0000000.000s, 031.5C,00002191
2021-09-06 09:02:58 r, 00.00m,0000596283Hz,0000000000c,0000000.000s, 031.5C,00002191
2021-09-06 09:12:57 r, 00.00m,0000596173Hz,0000000000c,0000000.000s, 032.2C,00002191
2021-09-06 09:22:58 r, 00.00m,0000596143Hz,0000000000c,0000000.000s, 032.2C,00002191
2021-09-06 09:32:59 r, 00.00m,0000596056Hz,0000000000c,0000000.000s, 032.8C,00002191
2021-09-06 09:42:57 r, 00.00m,0000595971Hz,0000000000c,0000000.000s, 033.5C,00002191
2021-09-06 09:52:59 r, 00.00m,0000595888Hz,0000000000c,0000000.000s, 033.8C,00002191
2021-09-06 10:02:58 r, 00.00m,0000595879Hz,0000000000c,0000000.000s, 033.8C,00002191
2021-09-06 10:12:57 r, 00.00m,0000595953Hz,0000000000c,0000000.000s, 033.5C,00002191
2021-09-06 10:22:58 r, 00.00m,0000595939Hz,0000000000c,0000000.000s, 033.5C,00002191
2021-09-06 10:32:59 r, 00.00m,0000595844Hz,0000000000c,0000000.000s, 034.1C,00002191
2021-09-06 10:42:57 r, 00.00m,0000595656Hz,0000000000c,0000000.000s, 035.1C,00002191
2021-09-06 10:52:58 r, 00.00m,0000595214Hz,0000000000c,0000000.000s, 038.0C,00002191
2021-09-06 11:02:58 r, 00.00m,0000595200Hz,0000000000c,0000000.000s, 038.6C,00002191
2021-09-06 11:12:57 r, 00.00m,0000595290Hz,0000000000c,0000000.000s, 038.0C,00002191
2021-09-06 11:22:58 r, 00.00m,0000595228Hz,0000000000c,0000000.000s, 037.7C,00002191
2021-09-06 11:33:00 r, 00.00m,0000595175Hz,0000000000c,0000000.000s, 038.6C,00002191
2021-09-06 11:42:57 r, 00.00m,0000595365Hz,0000000000c,0000000.000s, 037.7C,00002191
2021-09-06 11:53:00 r, 00.00m,0000595509Hz,0000000000c,0000000.000s, 036.0C,00002191
2021-09-06 12:02:58 r, 00.00m,0000595482Hz,0000000000c,0000000.000s, 036.4C,00002191
2021-09-06 12:12:57 r, 00.00m,0000595663Hz,0000000000c,0000000.000s, 036.0C,00002191
2021-09-06 12:23:00 r, 00.00m,0000595754Hz,0000000000c,0000000.000s, 035.4C,00002191
2021-09-06 12:32:58 r, 00.00m,0000595672Hz,0000000000c,0000000.000s, 035.4C,00002191
2021-09-06 12:42:57 r, 00.00m,0000595445Hz,0000000000c,0000000.000s, 036.7C,00002191
2021-09-06 12:52:58 r, 00.00m,0000595215Hz,0000000000c,0000000.000s, 038.6C,00002191
2021-09-06 13:02:59 r, 00.00m,0000595074Hz,0000000000c,0000000.000s, 040.9C,00002191
2021-09-06 13:12:57 r, 00.00m,0000594987Hz,0000000000c,0000000.000s, 040.6C,00002191
2021-09-06 13:22:59 r, 00.00m,0000594921Hz,0000000000c,0000000.000s, 040.9C,00002191
2021-09-06 13:32:58 r, 00.00m,0000594912Hz,0000000000c,0000000.000s, 041.2C,00002191
2021-09-06 13:42:57 r, 00.00m,0000594557Hz,0000000000c,0000000.000s, 043.5C,00002191
2021-09-06 13:53:00 r, 00.00m,0000594323Hz,0000000000c,0000000.000s, 045.4C,00002191
2021-09-06 14:02:58 r, 00.00m,0000594110Hz,0000000000c,0000000.000s, 046.7C,00002191
2021-09-06 14:12:57 r, 00.00m,0000593975Hz,0000000000c,0000000.000s, 048.0C,00002191
2021-09-06 14:23:00 r, 00.00m,0000593819Hz,0000000000c,0000000.000s, 048.6C,00002191
2021-09-06 14:32:58 r, 00.00m,0000593735Hz,0000000000c,0000000.000s, 049.3C,00002191
2021-09-06 14:42:57 r, 00.00m,0000593938Hz,0000000000c,0000000.000s, 048.0C,00002191
2021-09-06 14:52:58 r, 00.00m,0000594382Hz,0000000000c,0000000.000s, 045.1C,00002191
2021-09-06 15:02:59 r, 00.00m,0000594933Hz,0000000000c,0000000.000s, 042.2C,00002191
2021-09-06 15:12:57 r, 00.00m,0000595176Hz,0000000000c,0000000.000s, 039.6C,00002191
2021-09-06 15:22:59 r, 00.00m,0000595226Hz,0000000000c,0000000.000s, 038.3C,00002191
2021-09-06 15:32:58 r, 00.00m,0000595359Hz,0000000000c,0000000.000s, 037.3C,00002191
2021-09-06 15:42:57 r, 00.00m,0000595440Hz,0000000000c,0000000.000s, 036.4C,00002191
2021-09-06 15:52:57 r, 00.00m,0000595556Hz,0000000000c,0000000.000s, 035.4C,00002191
2021-09-06 16:03:00 r, 00.00m,0000595696Hz,0000000000c,0000000.000s, 034.8C,00002191
2021-09-06 16:12:57 r, 00.00m,0000595711Hz,0000000000c,0000000.000s, 034.4C,00002191
2021-09-06 16:22:57 r, 00.00m,0000595804Hz,0000000000c,0000000.000s, 033.8C,00002191
2021-09-06 16:32:58 r, 00.00m,0000533923Hz,0000000000c,0000000.000s, 033.5C,00002191
2021-09-06 16:42:57 r, 00.00m,0000595807Hz,0000000000c,0000000.000s, 033.1C,00002191
2021-09-06 16:52:57 r, 00.00m,0000595901Hz,0000000000c,0000000.000s, 033.1C,00002191
2021-09-06 17:02:58 r, 00.00m,0000595709Hz,0000000000c,0000000.000s, 033.8C,00002191
2021-09-06 17:12:57 r, 00.00m,0000595855Hz,0000000000c,0000000.000s, 034.1C,00002191
2021-09-06 17:22:57 r, 00.00m,0000574612Hz,0000000000c,0000000.000s, 033.8C,00002191
2021-09-06 17:33:00 r, 00.00m,0000595890Hz,0000000000c,0000000.000s, 033.1C,00002191
2021-09-06 17:42:57 r, 00.00m,0000595954Hz,0000000000c,0000000.000s, 033.1C,00002191
2021-09-06 17:52:57 r, 00.00m,0000595886Hz,0000000000c,0000000.000s, 033.1C,00002191
2021-09-06 18:03:00 r, 00.00m,0000595940Hz,0000000000c,0000000.000s, 033.5C,00002191
2021-09-06 18:12:57 r, 00.00m,0000595878Hz,0000000000c,0000000.000s, 033.5C,00002191
2021-09-06 18:22:57 r, 00.00m,0000595799Hz,0000000000c,0000000.000s, 033.8C,00002191
2021-09-06 18:32:58 r, 00.00m,0000595809Hz,0000000000c,0000000.000s, 033.8C,00002191
2021-09-06 18:42:57 r, 00.00m,0000595866Hz,0000000000c,0000000.000s, 033.5C,00002191
2021-09-06 18:52:57 r, 00.00m,0000595828Hz,0000000000c,0000000.000s, 034.1C,00002191
2021-09-06 19:02:58 r, 00.00m,0000595889Hz,0000000000c,0000000.000s, 034.1C,00002191
2021-09-06 19:12:57 r, 06.04m,0000326549Hz,0000000000c,0000000.000s, 033.5C,00002191
2021-09-06 19:22:57 r, 05.83m,0000394358Hz,0000000000c,0000000.000s, 032.5C,00002191
2021-09-06 19:32:58 r, 00.00m,0000433991Hz,0000000000c,0000000.000s, 032.5C,00002191
2021-09-06 19:42:57 r, 06.68m,0000179299Hz,0000000000c,0000000.000s, 031.9C,00002191
2021-09-06 19:52:57 r, 07.34m,0000097564Hz,0000000000c,0000000.000s, 031.2C,00002191
2021-09-06 20:03:00 r, 08.30m,0000040559Hz,0000000000c,0000000.000s, 030.6C,00002191
2021-09-06 20:12:57 r, 09.71m,0000011014Hz,0000000000c,0000000.000s, 029.9C,00002191
2021-09-06 20:22:57 r, 11.47m,0000002182Hz,0000000000c,0000000.000s, 029.6C,00002191
2021-09-06 20:32:58 r, 13.55m,0000000322Hz,0000000000c,0000000.000s, 029.6C,00002191
2021-09-06 20:42:57 r, 15.84m,0000000039Hz,0000011894c,0000000.026s, 029.0C,00002191
2021-09-06 20:52:57 r, 17.31m,0000000010Hz,0000046044c,0000000.100s, 028.6C,00002191
2021-09-06 21:02:58 r, 18.57m,0000000003Hz,0000146800c,0000000.319s, 028.6C,00002191
2021-09-06 21:12:57 r, 19.23m,0000000002Hz,0000269604c,0000000.585s, 028.6C,00002191
2021-09-06 21:22:57 r, 19.58m,0000000001Hz,0000371303c,0000000.806s, 029.0C,00002191
2021-09-06 21:32:59 r, 19.65m,0000000001Hz,0000397291c,0000000.862s, 029.0C,00002191
2021-09-06 21:42:58 r, 19.78m,0000000001Hz,0000446350c,0000000.969s, 029.0C,00002191
2021-09-06 21:52:58 r, 20.85m,0000000001Hz,0001186232c,0000002.574s, 029.0C,00002191
2021-09-06 22:03:00 r, 20.85m,0000000001Hz,0001192788c,0000002.589s, 028.6C,00002191
2021-09-06 22:12:58 r, 20.85m,0000000000Hz,0001181390c,0000002.564s, 028.3C,00002191
2021-09-06 22:22:57 r, 20.86m,0000000000Hz,0001197649c,0000002.599s, 027.7C,00002191
2021-09-06 22:33:00 r, 20.04m,0000000001Hz,0000565378c,0000001.227s, 027.0C,00002191
2021-09-06 22:42:58 r, 20.56m,0000000001Hz,0000908475c,0000001.972s, 026.7C,00002191
2021-09-06 22:52:57 r, 19.92m,0000000001Hz,0000507532c,0000001.101s, 026.4C,00002191
2021-09-06 23:02:58 r, 20.05m,0000000000Hz,0000571468c,0000001.240s, 026.4C,00002191
2021-09-06 23:12:59 r, 19.53m,0000000002Hz,0000355052c,0000000.771s, 026.4C,00002191
2021-09-06 23:22:57 r, 19.72m,0000000001Hz,0000420591c,0000000.913s, 027.0C,00002191
2021-09-06 23:32:59 r, 19.55m,0000000001Hz,0000362487c,0000000.787s, 027.7C,00002191
2021-09-06 23:42:58 r, 19.40m,0000000001Hz,0000317017c,0000000.688s, 028.0C,00002191
2021-09-06 23:52:57 r, 19.58m,0000000001Hz,0000371666c,0000000.807s, 028.3C,00002191
